Location: Newark
(42.9277°N, 71.8621°W)
Time: 06:54:11
(UTC+00:00)

Envisat - Pass Details

Date: 28 July 2021
Orbit: 764 x 766 km, 98.2° (Epoch: 25 September)

Event Time Altitude Azimuth Distance (km) Brightness Sun altitude
Rises 08:53:49 0° 30° (NNE) 3,242 7.6 -7.3°
Reaches altitude 10° 08:56:56 10° 50° (NE) 2,310 7.3 -6.8°
Maximum altitude 09:00:16 17° 91° (E) 1,843 5.9 -6.3°
Drops below altitude 10° 09:03:35 10° 132° (SE) 2,298 5.7 -5.8°
Sets 09:06:39 0° 152° (SSE) 3,218 6.2 -5.3°
